Wind_Speed
4 4 4 4 3 3 4 5 4 3 3 3 3 3 3 3 2 2 2 2 2 2 3 3 3 2 3 3 4 4 4 4 5 5 6 6 6 5 5 5 5 5 5
3 3 3 4 3 3 4 4 4 4 4 4 4 4 4 4 4 3 3 3 3 3 3 3 3 4 4 4 5 5 5 5 6 6 6 6 7 7 7 7 6 6 6
4 4 3 3 3 4 4 5 5 5 5 4 5 5 5 5 5 4 4 3 4 4 4 4 4 5 5 5 5 6 6 6 7 7 7 7 8 8 8 8 8 7 7
5 5 4 4 4 5 5 6 6 6 6 5 6 5 5 6 5 5 5 5 5 5 5 4 5 5 6 6 6 6 7 7 7 8 8 8 8 8 8 7 8 8 8
6 6 6 5 5 6 6 7 7 7 7 6 6 6 6 6 6 6 6 6 6 6 5 5 6 6 6 6 6 6 7 7 7 8 8 8 9 8 9 8 8 9 9
6 6 6 6 7 7 7 7 7 8 7 7 7 6 6 6 6 7 7 7 7 7 7 7 7 7 7 7 7 7 8 8 8 8 9 9 9 9 9 9 9 9 9
6 6 6 6 6 7 7 8 8 8 8 7 6 6 6 7 7 7 8 8 8 8 9 9 8 8 7 7 8 8 9 9 9 9 9 9 9 10 10 10 10 10 10
6 6 6 7 7 7 7 8 8 8 8 7 7 7 8 7 7 8 8 9 9 9 9 9 9 8 8 9 9 9 9 9 10 10 10 10 10 10 10 11 11 11 10
7 7 7 7 7 8 8 7 7 8 8 8 8 9 9 8 9 9 9 9 9 9 9 9 9 9 9 10 10 10 9 10 10 10 10 11 11 11 11 11 11 11 11
7 7 7 7 8 7 7 7 7 7 7 8 8 9 8 9 9 9 9 9 9 9 8 8 9 9 10 10 10 10 10 11 11 11 12 11 11 11 11 11 11 12 12
8 7 7 7 8 8 7 7 7 7 7 8 8 9 9 9 9 9 9 9 9 9 8 8 8 8 9 10 9 9 10 11 12 12 12 12 11 11 11 11 12 12 12
7 8 8 8 8 8 8 7 8 7 7 8 8 8 9 9 9 9 9 9 9 9 8 9 8 9 10 9 9 10 10 11 11 12 12 12 12 12 12 12 12 12 13
8 8 8 8 8 8 7 7 7 7 7 7 7 7 7 8 8 8 8 8 8 8 9 10 10 10 10 11 10 10 10 11 11 12 12 12 13 13 13 13 13 13 13
7 7 7 8 7 7 7 7 6 6 6 7 7 6 6 7 8 7 7 8 8 9 9 10 10 10 10 10 11 10 10 11 11 11 12 12 13 13 13 13 13 13 13
7 7 7 7 7 7 7 7 6 5 6 6 7 7 7 7 7 7 7 7 8 8 9 9 10 10 10 10 10 10 10 10 10 11 11 11 12 13 12 12 12 12 13
7 7 7 7 7 7 7 7 7 7 7 7 7 8 9 8 8 8 8 8 8 8 8 8 9 9 9 9 9 10 10 11 11 10 9 10 11 11 11 11 11 12 12
7 8 8 8 8 8 8 8 8 8 8 7 7 7 7 7 8 8 8 8 9 8 8 9 9 9 8 9 9 9 10 11 11 10 10 10 10 9 10 11 11 11 12
8 8 9 9 9 9 9 8 9 9 8 8 7 7 7 7 7 8 8 9 9 9 10 10 10 10 9 9 9 10 10 11 11 11 12 12 12 11 11 11 11 10 11
9 10 10 10 10 9 9 9 9 9 8 8 8 7 8 8 8 8 8 9 9 9 9 10 10 9 9 10 10 10 10 11 11 12 12 12 13 13 13 13 13 12 12
10 10 11 11 11 10 10 10 10 9 9 9 9 9 9 9 9 9 9 9 9 9 9 10 10 10 10 10 10 11 11 11 11 12 12 13 13 13 13 13 13 13 13
11 11 10 10 10 10 10 10 10 10 10 11 10 10 10 11 10 10 10 9 9 10 10 10 10 10 10 10 10 10 10 10 11 11 12 13 13 13 13 13 13 13 13
10 10 10 10 11 11 11 11 11 11 11 11 10 10 11 11 11 10 10 10 10 10 10 10 10 10 10 10 10 10 10 11 11 12 12 13 14 14 14 14 14 14 14
11 11 11 11 11 11 12 11 11 11 11 11 11 11 11 11 11 10 10 11 11 11 10 11 11 11 10 10 11 11 11 12 12 12 13 13 14 14 14 14 14 14 14
11 10 11 11 12 12 12 11 11 11 11 12 12 11 11 11 12 11 11 11 11 12 12 12 11 11 12 12 12 12 13 13 13 13 14 14 14 14 14 14 14 14 15
10 10 11 11 11 12 12 12 11 12 12 13 13 13 13 13 13 12 12 12 12 12 13 13 13 13 13 13 13 14 14 14 14 14 14 15 15 14 14 14 14 15 15
11 11 11 11 11 12 12 12 12 13 14 14 14 14 15 15 15 15 14 14 14 14 14 14 14 14 14 14 15 15 15 15 15 15 15 15 15 15 15 15 15 15 15
Wind_Direction
235 235 237 233 240 241 245 247 250 256 258 256 249 246 243 241 237 237 240 254 250 225 224 230 237 245 250 242 238 238 242 245 252 258 252 255 256 254 253 250 249 249 252
237 236 238 236 244 254 252 245 252 263 264 257 255 255 246 242 237 236 244 257 257 246 239 244 246 247 253 252 245 246 251 253 256 258 256 256 255 253 253 253 253 252 255
241 235 235 232 249 257 260 258 257 260 264 259 257 259 253 241 239 239 244 250 254 254 252 253 251 251 253 250 248 251 255 257 254 256 258 256 255 254 256 254 256 256 258
244 238 238 247 258 262 265 262 262 262 260 257 254 254 253 246 243 245 246 251 253 253 253 254 254 253 257 256 252 255 259 258 256 257 261 260 258 259 258 258 258 255 257
251 251 252 254 258 264 263 259 260 266 262 259 260 257 252 250 251 249 252 253 253 252 253 255 256 256 257 258 258 259 261 259 254 255 261 263 261 262 260 261 261 261 260
255 254 256 263 264 266 266 263 263 265 267 261 259 254 252 249 251 253 256 254 256 255 256 256 258 258 260 263 262 260 261 257 254 256 259 264 263 260 261 263 262 260 260
256 257 258 260 263 263 268 269 267 266 267 261 250 249 253 255 254 257 258 256 258 260 260 261 260 259 260 261 264 265 264 262 259 257 258 261 263 262 263 264 263 263 264
258 261 262 267 269 267 269 271 268 265 266 260 254 252 256 258 258 261 262 262 260 260 261 261 258 258 260 261 262 264 264 262 259 256 255 259 260 262 265 265 263 268 272
255 259 262 268 272 267 268 267 264 263 266 264 260 255 257 258 259 262 263 265 262 261 262 261 260 258 262 262 262 263 263 263 259 258 258 258 258 261 262 262 262 265 267
253 256 260 264 268 266 267 268 265 266 266 266 259 258 258 259 261 263 263 266 266 265 263 261 262 261 260 260 263 265 264 266 261 258 258 260 260 259 258 260 262 265 269
255 256 259 262 261 263 266 265 266 264 263 262 261 260 262 263 265 263 261 263 265 267 265 263 265 264 263 259 263 267 267 267 262 259 258 258 260 261 261 262 264 266 270
257 259 259 259 261 262 263 266 268 265 266 264 266 268 267 265 263 262 264 265 266 266 267 269 269 268 267 264 265 267 267 267 263 261 258 258 262 262 260 263 265 268 270
259 262 259 257 259 260 261 264 265 263 267 271 274 269 268 264 262 262 261 265 268 271 271 271 274 272 268 267 266 266 266 269 267 264 261 260 261 262 260 262 264 268 271
256 257 260 261 257 258 260 260 264 264 269 275 277 273 272 271 267 263 263 267 269 274 274 274 276 274 270 267 266 266 268 270 271 268 265 262 261 262 263 264 264 265 268
254 257 258 259 259 259 260 262 270 272 278 281 277 272 272 276 271 267 269 270 273 276 277 278 277 276 271 272 270 269 270 272 272 270 262 260 261 262 265 267 267 266 266
256 256 256 258 259 264 265 268 274 276 280 284 282 276 274 274 274 273 275 274 272 276 280 280 279 276 275 276 275 273 272 270 270 269 270 266 262 266 268 268 267 267 265
257 258 260 262 261 264 271 277 276 276 281 282 282 277 271 272 275 276 273 273 273 277 280 282 278 278 277 277 276 274 274 270 272 271 273 271 267 267 269 269 269 270 269
260 261 264 264 263 267 274 279 279 278 280 282 282 279 272 271 273 278 275 274 274 275 277 280 276 275 274 275 276 274 273 271 269 270 274 273 270 269 271 269 268 273 274
264 265 266 267 266 269 273 276 279 278 279 283 284 281 276 275 275 276 277 276 277 277 276 276 276 279 278 278 277 277 274 274 274 273 273 272 274 274 273 270 268 273 275
267 266 268 268 267 269 271 274 277 276 274 277 279 279 278 276 274 276 279 277 279 281 280 280 279 279 279 279 279 280 280 280 277 276 274 272 274 275 273 272 270 272 273
273 268 267 266 266 269 270 273 276 276 275 278 280 277 275 274 272 273 276 276 278 279 279 283 284 280 279 280 282 282 281 281 282 280 278 277 275 276 275 275 272 272 271
276 273 271 271 268 270 270 272 274 277 279 279 278 276 277 276 275 276 278 278 277 277 280 282 285 284 281 280 281 282 284 286 285 284 282 281 279 277 277 277 276 275 272
276 273 273 272 272 270 269 273 275 274 276 275 274 273 275 278 278 279 279 279 278 275 276 279 281 282 282 282 283 285 285 286 287 287 285 282 280 277 276 276 277 277 273
274 274 275 275 274 274 275 274 273 272 273 274 273 271 272 276 279 279 279 280 280 278 276 277 279 281 282 283 283 283 283 284 286 287 285 283 281 279 277 276 275 275 273
275 274 275 276 276 277 278 276 273 273 275 274 272 270 268 271 273 276 277 277 277 277 278 279 280 280 281 282 281 282 281 282 284 284 284 284 282 280 278 277 276 275 273
278 275 274 276 277 277 276 276 274 274 275 275 272 270 268 268 270 272 274 276 276 276 276 277 278 279 279 280 280 281 281 280 283 283 284 284 282 280 278 277 276 276 274
Height
5888 5887 5887 5887 5887 5887 5887 5887 5887 5887 5887 5886 5886 5886 5886 5885 5885 5884 5884 5884 5883 5883 5883 5883 5883 5883 5883 5883 5883 5883 5883 5883 5883 5883 5882 5882 5882 5882 5881 5881 5881 5881 5881
5887 5886 5886 5886 5886 5886 5886 5886 5886 5886 5886 5886 5885 5885 5885 5884 5884 5883 5883 5883 5883 5883 5882 5882 5882 5882 5882 5882 5882 5882 5882 5882 5882 5882 5882 5881 5881 5881 5881 5880 5880 5880 5880
5886 5886 5886 5886 5885 5885 5885 5885 5885 5885 5885 5884 5884 5884 5884 5883 5883 5882 5882 5882 5882 5882 5882 5882 5881 5881 5881 5881 5881 5881 5881 5881 5881 5881 5881 5880 5880 5880 5880 5879 5879 5879 5879
5885 5885 5885 5885 5884 5884 5884 5884 5884 5883 5883 5883 5883 5882 5882 5882 5882 5881 5881 5881 5881 5881 5880 5880 5880 5880 5880 5880 5880 5880 5880 5880 5880 5880 5879 5879 5879 5878 5878 5878 5878 5878 5878
5884 5883 5883 5883 5883 5883 5883 5883 5882 5882 5882 5882 5881 5881 5881 5881 5880 5880 5880 5880 5880 5879 5879 5879 5879 5879 5879 5879 5878 5878 5878 5878 5878 5878 5878 5878 5877 5877 5877 5877 5876 5876 5876
5882 5882 5882 5882 5882 5882 5881 5881 5881 5881 5880 5880 5880 5880 5880 5879 5879 5879 5879 5879 5878 5878 5878 5878 5878 5877 5877 5877 5877 5877 5877 5877 5876 5876 5876 5876 5876 5876 5876 5876 5875 5875 5875
5881 5881 5881 5880 5880 5880 5880 5879 5879 5879 5879 5879 5878 5878 5878 5878 5877 5877 5877 5877 5877 5876 5876 5876 5876 5876 5875 5875 5875 5875 5875 5875 5875 5875 5875 5875 5874 5874 5874 5874 5874 5873 5873
5880 5880 5879 5879 5879 5878 5878 5878 5877 5877 5877 5877 5877 5876 5876 5876 5876 5876 5875 5875 5875 5875 5874 5874 5874 5874 5874 5873 5873 5873 5873 5873 5873 5873 5873 5873 5872 5872 5872 5872 5872 5871 5871
5878 5878 5878 5878 5877 5877 5876 5876 5876 5876 5875 5875 5875 5875 5874 5874 5874 5874 5874 5873 5873 5873 5872 5872 5872 5872 5871 5871 5871 5871 5871 5871 5871 5871 5871 5871 5870 5870 5870 5870 5870 5869 5869
5877 5877 5876 5876 5876 5876 5875 5875 5874 5874 5874 5873 5873 5873 5873 5872 5872 5872 5872 5871 5871 5871 5870 5870 5870 5869 5869 5869 5869 5869 5869 5869 5869 5868 5868 5868 5868 5868 5868 5868 5868 5867 5867
5875 5875 5875 5875 5875 5874 5874 5873 5873 5872 5872 5871 5871 5871 5871 5870 5870 5870 5870 5869 5869 5869 5868 5868 5867 5867 5867 5867 5867 5866 5866 5866 5866 5866 5866 5866 5866 5866 5866 5865 5865 5865 5864
5874 5874 5873 5873 5873 5873 5872 5872 5871 5871 5870 5870 5870 5869 5869 5868 5868 5868 5867 5867 5867 5866 5866 5866 5865 5865 5865 5864 5864 5864 5864 5864 5864 5863 5863 5863 5864 5863 5863 5863 5863 5862 5861
5872 5872 5872 5872 5872 5871 5871 5870 5870 5869 5869 5868 5868 5867 5867 5867 5866 5866 5866 5865 5865 5865 5864 5864 5864 5863 5863 5862 5862 5862 5862 5861 5861 5861 5861 5861 5861 5861 5860 5860 5860 5859 5859
5871 5871 5871 5871 5870 5870 5869 5869 5868 5868 5867 5867 5866 5866 5865 5865 5865 5864 5864 5863 5863 5863 5862 5862 5861 5861 5860 5860 5860 5859 5859 5859 5858 5858 5858 5858 5858 5858 5857 5857 5857 5857 5856
5870 5869 5869 5869 5869 5869 5868 5868 5867 5867 5866 5866 5865 5864 5864 5863 5863 5863 5862 5861 5861 5861 5860 5860 5859 5859 5858 5858 5857 5857 5857 5857 5856 5856 5855 5855 5855 5855 5854 5854 5854 5854 5853
5868 5868 5868 5868 5868 5867 5867 5866 5866 5865 5865 5864 5863 5863 5862 5862 5861 5861 5860 5860 5860 5859 5858 5858 5857 5857 5856 5856 5855 5855 5855 5854 5854 5854 5853 5853 5852 5852 5852 5851 5851 5851 5850
5867 5867 5867 5866 5866 5866 5865 5865 5864 5864 5863 5862 5862 5861 5860 5860 5859 5859 5859 5858 5858 5857 5857 5856 5855 5855 5854 5854 5853 5853 5852 5852 5851 5851 5850 5850 5850 5849 5849 5849 5848 5848 5848
5865 5865 5865 5865 5864 5864 5864 5863 5863 5862 5861 5861 5860 5859 5859 5858 5857 5857 5857 5856 5856 5855 5855 5854 5853 5853 5852 5852 5851 5851 5850 5849 5849 5848 5848 5848 5847 5847 5847 5846 5846 5845 5845
5863 5863 5863 5863 5862 5862 5862 5861 5861 5860 5860 5859 5858 5858 5857 5856 5856 5855 5855 5854 5854 5853 5853 5852 5851 5851 5850 5850 5849 5848 5847 5847 5846 5846 5845 5845 5844 5844 5844 5843 5843 5842 5842
5861 5861 5861 5860 5860 5860 5859 5859 5858 5858 5858 5857 5856 5856 5855 5854 5854 5853 5853 5852 5851 5851 5850 5850 5849 5848 5848 5847 5846 5846 5845 5844 5844 5843 5842 5842 5842 5841 5840 5840 5840 5839 5839
5858 5858 5858 5858 5858 5857 5857 5857 5856 5856 5855 5855 5854 5853 5853 5852 5852 5851 5850 5850 5849 5849 5848 5847 5847 5846 5845 5845 5844 5843 5842 5842 5841 5840 5840 5839 5839 5838 5837 5837 5836 5836 5835
5856 5855 5855 5855 5855 5855 5854 5854 5854 5853 5853 5852 5851 5851 5850 5850 5849 5848 5848 5847 5847 5846 5846 5845 5844 5844 5843 5842 5842 5841 5840 5840 5838 5838 5837 5836 5835 5835 5834 5833 5833 5832 5832
5853 5853 5853 5853 5852 5852 5851 5851 5851 5850 5850 5849 5849 5848 5847 5847 5846 5846 5845 5844 5844 5843 5843 5842 5842 5841 5840 5840 5839 5839 5838 5837 5836 5835 5834 5833 5832 5832 5831 5830 5829 5829 5828
5850 5850 5850 5850 5849 5849 5848 5848 5848 5847 5847 5846 5846 5845 5845 5844 5843 5843 5842 5842 5841 5840 5840 5839 5839 5838 5838 5837 5836 5835 5834 5833 5833 5832 5831 5830 5829 5828 5827 5826 5826 5825 5824
5848 5848 5847 5847 5846 5846 5845 5845 5845 5844 5844 5843 5842 5842 5841 5841 5840 5839 5839 5838 5838 5837 5837 5836 5835 5835 5834 5833 5833 5832 5831 5830 5829 5828 5827 5826 5825 5824 5823 5823 5822 5821 5821
5845 5845 5844 5844 5843 5843 5842 5842 5841 5841 5840 5839 5838 5838 5837 5837 5836 5836 5835 5835 5834 5834 5833 5832 5832 5831 5830 5830 5829 5828 5827 5826 5825 5824 5823 5822 5821 5820 5819 5818 5818 5817 5816